Weather History for Huntsville Madison, AL

Change the Weather History Date:

Wednesday, January 9, 2013

  Actual Average (KHSV) Record (KHSV)
Temperature  
Mean Temperature 54 °F 41 °F  
Max Temperature 57 °F 51 °F 73 °F (1939)
Min Temperature 50 °F 32 °F 3 °F (1970)
Degree Days  
Heating Degree Days 12 24  
Month to date heating degree days 216  
Since 1 July heating degree days 1397  
Cooling Degree Days 0 0  
Month to date cooling degree days 0  
Year to date cooling degree days 0  
Growing Degree Days 4 (Base 50)    
Moisture  
Dew Point 50 °F    
Average Humidity 87    
Maximum Humidity 94    
Minimum Humidity 71    
Precipitation  
Precipitation 0.29 in 0.16 in 1.77 in (1936)
Month to date precipitation 1.43  
Year to date precipitation 1.43  
Snow  
Snow 0.00 in - - ()
Month to date snowfall  
Since 1 July snowfall  
Snow Depth -    
Sea Level Pressure  
Sea Level Pressure 30.34 in    
Wind  
Wind Speed 5 mph (SE)    
Max Wind Speed 12 mph    
Max Gust Speed 18 mph    
Visibility 5 miles    
Events Rain    
T = Trace of Precipitation, MM = Missing Value Source: NWS Daily Summary

Daily Weather History Graph

Daily Weather History Graph

Search for Another Location

Airport:

Trip Planner

Search our weather history database for the weather conditions in past years. The results will help you decide how hot, cold, wet, or windy it might be!

Date:

Astronomy

Jan. 09, 2013 Rise Set
Actual Time 6:54 AM CST 4:52 PM CST
Civil Twilight 6:26 AM CST 5:20 PM CST
Nautical Twilight 5:55 AM CST 5:51 PM CST
Astronomical Twilight 5:24 AM CST 6:22 PM CST
Moon 4:32 AM CST (1/9) 2:54 PM CST (1/9)
Length of Visible Light 10h 53m
Length of Day
9h 58m
Waning Crescent, 6% of the Moon is Illuminated
Jan 9
Waning Crescent
Jan 11
New
Jan 18
First Quarter
Jan 26
Full
Feb 3
Last Quarter

Hourly Weather History & Observations

Time (CST) Temp. Dew Point Humidity Pressure Visibility Wind Dir Wind Speed Gust Speed Precip Events Conditions
12:15 AM 50.0 °F 41.0 °F 71% 30.29 in 10.0 mi SE 4.6 mph - N/A   Mostly Cloudy
12:35 AM 50.0 °F 42.8 °F 76% 30.29 in 10.0 mi SE 6.9 mph - N/A   Overcast
12:55 AM 51.8 °F 42.8 °F 71% 30.28 in 10.0 mi SE 8.1 mph - N/A   Overcast
1:15 AM 51.8 °F 42.8 °F 71% 30.29 in 10.0 mi SSE 9.2 mph - N/A   Overcast
1:35 AM 51.8 °F 42.8 °F 71% 30.29 in 10.0 mi SE 9.2 mph - N/A   Overcast
1:55 AM 51.8 °F 42.8 °F 71% 30.29 in 10.0 mi SE 9.2 mph 17.3 mph N/A   Overcast
2:15 AM 51.8 °F 42.8 °F 71% 30.29 in 10.0 mi SE 9.2 mph - N/A   Overcast
2:35 AM 51.8 °F 42.8 °F 71% 30.29 in 10.0 mi SE 11.5 mph 16.1 mph N/A   Overcast
2:55 AM 51.8 °F 42.8 °F 71% 30.29 in 10.0 mi SE 10.4 mph 18.4 mph N/A   Overcast
3:15 AM 51.8 °F 42.8 °F 71% 30.30 in 10.0 mi SE 8.1 mph - N/A   Overcast
3:35 AM 51.8 °F 44.6 °F 76% 30.30 in 7.0 mi SE 8.1 mph - N/A Rain Rain
3:55 AM 50.0 °F 44.6 °F 82% 30.31 in 7.0 mi SE 6.9 mph - N/A Rain Rain
4:15 AM 50.0 °F 44.6 °F 82% 30.31 in 5.0 mi SE 5.8 mph - N/A Rain Rain
4:35 AM 50.0 °F 44.6 °F 82% 30.31 in 5.0 mi SE 9.2 mph - 0.02 in Rain Light Rain
4:55 AM 50.0 °F 44.6 °F 82% 30.31 in 5.0 mi SE 6.9 mph - 0.02 in Rain Light Rain
5:15 AM 50.0 °F 44.6 °F 82% 30.31 in 5.0 mi SE 6.9 mph - 0.02 in Rain Light Rain
5:35 AM 50.0 °F 44.6 °F 82% 30.31 in 7.0 mi SE 8.1 mph - 0.02 in   Drizzle
5:55 AM 50.0 °F 44.6 °F 82% 30.31 in 7.0 mi SE 6.9 mph - 0.02 in   Drizzle
6:15 AM 50.0 °F 46.4 °F 87% 30.31 in 7.0 mi SE 8.1 mph - N/A   Drizzle
6:35 AM 50.0 °F 46.4 °F 87% 30.32 in 7.0 mi SE 8.1 mph - N/A   Drizzle
6:55 AM 50.0 °F 46.4 °F 87% 30.34 in 7.0 mi SE 5.8 mph - N/A   Drizzle
7:15 AM 51.8 °F 46.4 °F 82% 30.34 in 5.0 mi SE 9.2 mph - N/A   Light Drizzle
7:35 AM 51.8 °F 46.4 °F 82% 30.36 in 5.0 mi SE 6.9 mph - 0.01 in   Drizzle
7:55 AM 51.8 °F 46.4 °F 82% 30.37 in 4.0 mi SE 8.1 mph - 0.01 in Rain Heavy Rain
8:35 AM 51.8 °F 48.2 °F 88% 30.38 in 4.0 mi SE 5.8 mph - 0.01 in Rain Light Rain
8:55 AM 51.8 °F 48.2 °F 88% 30.38 in 4.0 mi SE 6.9 mph - 0.02 in   Drizzle
9:15 AM 51.8 °F 50.0 °F 94% 30.38 in 4.0 mi SE 5.8 mph - N/A Rain Light Rain
9:35 AM 51.8 °F 50.0 °F 94% 30.39 in 4.0 mi SE 5.8 mph - 0.01 in   Drizzle
9:55 AM 51.8 °F 50.0 °F 94% 30.39 in 4.0 mi SE 5.8 mph - 0.01 in   Drizzle
10:15 AM 53.6 °F 50.0 °F 88% 30.38 in 4.0 mi ESE 5.8 mph - N/A   Drizzle
10:35 AM 53.6 °F 51.8 °F 94% 30.38 in 4.0 mi SE 4.6 mph - N/A   Drizzle
10:55 AM 53.6 °F 51.8 °F 94% 30.37 in 5.0 mi SE 5.8 mph - N/A   Drizzle
11:15 AM 55.4 °F 51.8 °F 88% 30.36 in 5.0 mi ESE 4.6 mph - N/A   Light Drizzle
11:55 AM 55.4 °F 51.8 °F 88% 30.34 in 7.0 mi SE 5.8 mph - N/A   Mostly Cloudy
12:15 PM 55.4 °F 51.8 °F 88% 30.34 in 7.0 mi ESE 5.8 mph - N/A   Light Drizzle
12:35 PM 55.4 °F 51.8 °F 88% 30.34 in 7.0 mi SE 4.6 mph - N/A Rain Light Rain
12:55 PM 55.4 °F 51.8 °F 88% 30.33 in 7.0 mi ESE 4.6 mph - N/A Rain Light Rain
1:15 PM 57.2 °F 51.8 °F 82% 30.34 in 7.0 mi Calm Calm - N/A   Overcast
1:35 PM 57.2 °F 51.8 °F 82% 30.34 in 7.0 mi East 3.5 mph - N/A   Overcast
1:55 PM 57.2 °F 51.8 °F 82% 30.34 in 7.0 mi Calm Calm - N/A   Overcast
2:15 PM 57.2 °F 53.6 °F 88% 30.34 in 7.0 mi Calm Calm - N/A   Drizzle
2:35 PM 57.2 °F 53.6 °F 88% 30.34 in 7.0 mi Calm Calm - N/A   Light Drizzle
2:55 PM 57.2 °F 53.6 °F 88% 30.35 in 7.0 mi Calm Calm - N/A Rain Light Rain
3:15 PM 57.2 °F 53.6 °F 88% 30.35 in 4.0 mi Calm Calm - 0.01 in Rain Light Rain
3:35 PM 55.4 °F 53.6 °F 94% 30.35 in 3.0 mi Calm Calm - 0.01 in Rain Light Rain
3:55 PM 55.4 °F 53.6 °F 94% 30.34 in 3.0 mi Calm Calm - 0.02 in Rain Rain
4:15 PM 55.4 °F 53.6 °F 94% 30.34 in 2.5 mi Calm Calm - N/A   Drizzle
4:35 PM 55.4 °F 53.6 °F 94% 30.33 in 1.8 mi Calm Calm - N/A Rain Light Rain
4:55 PM 55.4 °F 53.6 °F 94% 30.34 in 2.0 mi Calm Calm - 0.01 in Rain Light Rain
5:15 PM 55.4 °F 53.6 °F 94% 30.33 in 0.8 mi Calm Calm - 0.01 in Rain Rain
5:35 PM 53.6 °F 51.8 °F 94% 30.34 in 0.2 mi Calm Calm - 0.03 in Rain Light Rain
5:55 PM 55.4 °F 51.8 °F 88% 30.34 in 0.5 mi Calm Calm - 0.03 in Rain Rain
6:15 PM 55.4 °F 53.6 °F 94% 30.35 in 2.5 mi Calm Calm - 0.01 in Rain Rain
6:35 PM 55.4 °F 53.6 °F 94% 30.36 in 3.0 mi Calm Calm - 0.03 in Rain Rain
6:55 PM 55.4 °F 53.6 °F 94% 30.37 in 3.0 mi Calm Calm - 0.06 in Rain Rain
7:15 PM 55.4 °F 51.8 °F 88% 30.37 in 2.5 mi Calm Calm - 0.02 in Rain Rain
7:35 PM 55.4 °F 53.6 °F 94% 30.37 in 4.0 mi Calm Calm - 0.03 in Rain Light Rain
7:55 PM 55.4 °F 53.6 °F 94% 30.38 in 3.0 mi Calm Calm - 0.05 in Rain Rain
8:15 PM 55.4 °F 51.8 °F 88% 30.38 in 2.5 mi North 3.5 mph - N/A Rain Rain
8:35 PM 53.6 °F 51.8 °F 94% 30.38 in 2.5 mi NNW 3.5 mph - N/A   Overcast
8:55 PM 55.4 °F 53.6 °F 94% 30.39 in 3.0 mi North 3.5 mph - N/A Rain Heavy Rain
9:15 PM 55.4 °F 53.6 °F 94% 30.37 in 3.0 mi NE 4.6 mph - 0.04 in Rain Rain
9:35 PM 55.4 °F 53.6 °F 94% 30.37 in 5.0 mi Calm Calm - 0.04 in Rain Rain
9:55 PM 55.4 °F 53.6 °F 94% 30.37 in 5.0 mi Calm Calm - 0.04 in   Overcast
10:15 PM 55.4 °F 53.6 °F 94% 30.37 in 4.0 mi Calm Calm - N/A   Overcast
10:35 PM 55.4 °F 51.8 °F 88% 30.37 in 3.0 mi Calm Calm - N/A   Overcast
10:55 PM 53.6 °F 51.8 °F 94% 30.37 in 3.0 mi Calm Calm - N/A   Overcast
11:15 PM 53.6 °F 51.8 °F 94% 30.37 in 2.5 mi Calm Calm - N/A   Overcast
11:35 PM 53.6 °F 51.8 °F 94% 30.37 in 5.0 mi Calm Calm - N/A   Overcast
11:55 PM 53.6 °F 51.8 °F 94% 30.36 in 1.8 mi Calm Calm - N/A   Overcast